Find Starlink 1667

NORAD ID: 46155 Int'l Des: 2020-057 Owner: SPXS Country: US Constellation: starlink operational
LEOCIRCULAR

現在のビュー

3D地球を読み込み中...

About Starlink 1667

Starlink 1667 (NORAD 46155) is a starlink constellation satellite (v1.0) launched Aug 18, 2020 by SPXS of US. It operates in LEO, CIRCULAR orbit with a mass of 260.00 kg.

Starlink 1667について

説明を読み込み中...

次回通過

Passes for default location (London). Set your location on the main map for personalized predictions.

高度履歴

Loading altitude history...

軌道要素

1 46155U 20057AQ 26178.59900793 .00934688 50629-3 10043-2 0 9994
2 46155 53.0046 33.2863 0008879 251.2150 108.7920 16.09428015325962
Epoch: Jun 27, 2026 • Age: 5 hours

現在のステータス

高度 257.4 km
速度 7.75 km/s
衛星直下点 43.41°N, 124.89°W
打ち上げ日 Aug 18, 2020
運用期間 5.8 years
タイプ internet

技術仕様

分類 Payload
質量 260.00 kg
乾燥質量 248.00 kg
総質量 260.00 kg
長さ 0.20 m
直径 2.80 m
スパン 9.00 m
形状 Box + pan
製造者 SPXS
バスタイプ Starlink
フェーズステータス In Orbit
所有者/国 SPXS/US

Most Searched